Startseite
Über Mich
AHP4
Galerie
Sehschlangen
Tourenbuch
Bookmarks
Elektronik
Bewertung
Geschichten
[Tagesmessung] [Jahreswerte] [Information]

Messwerte vom 21.06.2022

Die letzten Messwerte von 23:58:44 Uhr:
KategorieMesswert
Temperatur [°C]12
Luftdruck [mBar]997
Sonneneinstrahlung0
Wind [km/h]0 aus Nord
Niederschlag [l/m²]0
rel.Luftfeucht.83.9%
CO2 [ppm]602

Diagramme
Messwerte vom 21.06.2022
Tagesaggregation
KategorieMinimumMaximumSchnittSumme
Temperatur [°C]82816.7313
Luftdruck [mBar]9961002998.9021
Sonneneinstrahlung247143.6729
Wind [km/h]13
rF [%]29.596.667.61
Niederschlag [l/m²]0
CO2 [ppm]401737514.3
Einordnung alsVegetationstag
Sommertag

Messungen an benachbarten Tagen: Zur Jahresaggregation 2022
Tabelle aller Messwerte
UhrzeitTemperatur [°C]Luftdruck [mBar]SonneWind [km/h]RichtungRegen [l/m²]rF [%]CO2 [ppm]
00:01:46 10 999 0 0 S 0 85.2 556
00:04:47 10 999 0 0 SO 0 85.5 556
00:07:48 10 999 0 0 SO 0 86 550
00:10:47 10 999 0 0 SO 0 86.4 550
00:13:46 10 999 0 0 S 0 86.6 555
00:16:46 10 999 0 0 S 0 86.8 556
00:19:47 10 999 0 0 SW 0 87 565
00:22:50 10 999 0 0 SO 0 87.2 559
00:25:47 10 999 0 0 S 0 87.3 562
00:28:47 10 999 0 1 S 0 87.6 566
00:31:46 9 999 0 0 S 0 87.7 570
00:34:45 9 999 0 0 S 0 87.9 571
00:37:50 9 999 0 0 S 0 88 576
00:40:51 9 1000 0 0 SO 0 88.2 586
00:43:48 9 1000 0 0 W 0 88.3 594
00:46:46 9 999 0 0 O 0 89.1 600
00:49:46 9 999 0 0 S 0 89.5 593
00:52:45 9 999 0 0 S 0 90 600
00:55:46 9 999 0 0 O 0 90.3 597
00:58:48 9 999 0 0 O 0 90.1 603
01:01:48 9 999 0 0 SO 0 90.3 600
01:04:49 9 999 0 0 SO 0 91 601
01:07:48 9 999 0 0 SO 0 91.6 603
01:10:48 9 1000 0 0 SO 0 91.8 603
01:13:50 9 999 0 0 SO 0 92.3 605
01:16:48 9 999 0 0 SO 0 92.2 609
01:19:46 9 999 0 0 O 0 92.2 609
01:22:48 9 999 0 0 O 0 92.8 615
01:25:47 9 999 0 0 O 0 92.9 614
01:28:49 9 999 0 0 SW 0 93.5 618
01:31:48 9 999 0 0 S 0 93.6 615
01:34:47 9 999 0 0 S 0 93.6 620
01:37:45 9 999 0 0 S 0 94 618
01:40:45 9 999 0 0 NW 0 94.3 617
01:43:47 9 999 0 0 NW 0 94.7 622
01:46:46 9 999 0 0 S 0 94.4 629
01:49:47 9 999 0 0 S 0 94.2 635
01:52:46 9 999 0 0 SO 0 94.1 638
01:55:46 9 999 0 0 SO 0 94.1 647
01:58:46 9 999 0 0 NW 0 94.2 644
02:01:49 9 999 0 0 NW 0 94.5 644
02:04:46 9 999 0 0 W 0 94.6 641
02:07:46 9 999 0 0 W 0 94.6 641
02:10:46 9 999 0 0 W 0 94.6 638
02:13:47 9 1000 0 0 W 0 94.6 644
02:16:45 9 999 0 0 SO 0 94.5 644
02:19:47 9 999 0 0 O 0 95.1 652
02:22:47 9 1000 0 0 O 0 95.2 650
02:25:47 9 999 0 0 SW 0 95.5 649
02:28:48 9 999 0 0 SW 0 96 648
02:31:46 9 999 0 0 SO 0 96 653
02:34:48 9 999 0 2 SW 0 95.9 648
02:37:47 9 999 0 0 SO 0 96 652
02:40:49 9 999 0 0 S 0 96.1 648
02:43:46 9 999 0 0 NW 0 96.4 650
02:46:47 9 1000 0 0 O 0 96.3 650
02:49:46 9 999 0 0 S 0 96.3 653
02:52:48 9 1000 0 0 S 0 96 653
02:55:48 9 1000 0 0 SW 0 96 656
02:58:48 9 999 0 0 S 0 96.2 656
03:01:48 9 999 0 0 W 0 96.2 653
03:04:46 9 999 0 1 SO 0 96.2 661
03:07:49 9 999 0 0 NW 0 96.1 664
03:10:49 9 999 0 0 SO 0 96.5 665
03:13:45 9 999 0 0 SW 0 96.6 664
03:16:48 9 999 0 0 SO 0 96.6 658
03:19:46 9 1000 0 0 S 0 96.6 664
03:22:47 9 1000 0 1 S 0 96.6 667
03:25:46 9 999 0 1 SO 0 96.6 664
03:28:47 9 999 0 0 SO 0 96.6 658
03:31:50 9 999 0 0 SO 0 96.6 661
03:34:46 9 999 0 0 SO 0 96.6 661
03:37:46 9 999 0 0 SW 0 96.6 667
03:40:47 9 999 0 1 SO 0 96.6 664
03:43:47 9 999 0 0 SW 0 96.6 667
03:46:45 9 999 0 0 W 0 96.6 667
03:49:45 9 999 0 3 W 0 96.6 667
03:52:49 9 1000 0 2 SW 0 96.6 671
03:55:46 9 1000 0 0 O 0 96.6 670
03:58:49 9 1000 0 0 SO 0 96.6 673
04:01:47 9 999 0 0 SO 0 96.6 668
04:04:48 9 1000 0 0 S 0 96.6 670
04:07:46 8 999 0 0 S 0 96.6 667
04:10:46 8 999 0 0 S 0 96.6 671
04:13:46 8 999 0 0 O 0 96.6 679
04:16:48 8 1000 0 0 S 0 96.6 682
04:19:46 8 999 3 0 O 0 96.6 679
04:22:43 8 999 4 0 O 0 96.6 673
04:25:47 8 1000 6 0 O 0 96.6 685
04:28:46 8 999 8 0 S 0 96.6 685
04:31:48 8 1000 11 0 S 0 96.6 682
04:34:46 8 999 15 0 SO 0 96.6 677
04:37:49 8 1000 20 0 N 0 96.6 682
04:40:47 8 1000 25 0 SW 0 96.6 688
04:43:50 8 1000 32 0 SW 0 96.6 694
04:46:46 8 999 40 0 SW 0 96.6 691
04:49:48 8 999 49 0 SO 0 96.6 688
04:52:48 8 999 58 0 SW 0 96.6 691
04:55:48 8 999 68 2 SO 0 96.6 685
04:58:48 8 999 77 0 SO 0 96.6 685
05:01:46 8 999 85 0 O 0 96.6 685
05:04:49 8 1000 94 0 N 0 96.6 691
05:07:48 8 999 102 0 W 0 96.6 694
05:10:48 8 1000 109 0 S 0 96.6 697
05:13:48 8 1000 116 0 S 0 96.6 699
05:16:47 8 1000 121 0 SO 0 96.6 695
05:19:46 8 1000 127 0 S 0 96.6 699
05:22:48 8 999 132 0 S 0 96.6 702
05:25:47 8 999 137 0 SO 0 96.6 708
05:28:50 8 1000 141 0 SO 0 96.6 711
05:31:45 8 999 144 0 O 0 96.6 711
05:34:48 8 1000 148 0 W 0 96.6 702
05:37:48 8 1000 151 0 SO 0 96.6 703
05:40:47 8 1000 154 0 SO 0 96.6 705
05:43:47 8 999 156 0 O 0 96.6 710
05:46:49 8 999 158 0 S 0 96.6 708
05:49:47 8 999 160 0 S 0 96.6 708
05:52:48 8 1000 162 0 W 0 96.6 713
05:55:47 8 999 163 0 W 0 96.6 711
05:58:45 8 999 165 0 O 0 96.6 715
06:01:49 8 1000 166 1 SW 0 96.6 711
06:04:47 8 1000 167 0 SW 0 96.6 714
06:07:50 8 1000 169 0 SW 0 96.6 717
06:10:47 8 999 170 0 S 0 96.6 718
06:13:47 8 999 171 0 S 0 96.6 726
06:16:50 8 1000 172 0 NW 0 96.6 723
06:19:48 8 999 173 0 NW 0 96.6 726
06:22:49 9 999 173 0 NW 0 96.6 729
06:25:48 9 999 174 1 SO 0 96.6 729
06:28:49 9 999 174 0 SW 0 96.6 721
06:31:47 9 999 175 0 S 0 96.6 724
06:34:48 9 999 176 0 SW 0 96.6 723
06:37:50 9 999 177 0 SW 0 96.6 723
06:40:48 9 999 178 0 SW 0 96.6 725
06:43:47 9 999 179 3 SO 0 96.6 737
06:46:47 9 999 179 1 SO 0 96.6 734
06:49:49 9 1000 181 0 NO 0 96.6 720
06:52:47 10 1000 182 0 O 0 96.6 694
06:55:48 10 1000 183 1 SO 0 96.6 670
06:58:51 10 1000 183 1 SO 0 96.6 662
07:01:50 10 1000 190 0 S 0 96.6 659
07:04:47 10 1001 185 1 S 0 96.6 651
07:07:49 11 1000 185 0 S 0 96.6 641
07:10:47 11 1000 181 0 O 0 96.6 632
07:13:48 11 1000 191 0 S 0 96.6 627
07:16:48 11 1000 199 2 SO 0 96.6 626
07:19:48 11 1001 191 0 N 0 96.6 623
07:22:50 12 1000 186 1 SW 0 96.6 629
07:25:47 12 1000 185 0 O 0 96.6 634
07:28:48 12 1000 186 0 S 0 96.6 583
07:31:49 12 1001 183 0 N 0 96.6 523
07:34:49 13 1000 183 0 O 0 96.4 498
07:37:47 14 1000 184 0 SO 0 95.5 512
07:40:31 12 999 180 2 S 0 88.5 521
07:43:47 15 1001 186 0 S 0 90.4 526
07:46:50 16 1000 186 1 W 0 90.1 536
07:49:51 17 1000 194 0 S 0 85.2 532
07:52:47 18 999 184 0 O 0 84.4 539
07:55:46 20 1000 184 1 W 0 78.8 534
07:58:49 20 1000 185 0 W 0 71.1 533
08:01:50 20 1000 183 6 N 0 65.4 533
08:04:48 19 999 184 1 N 0 65.8 524
08:07:50 18 999 183 2 W 0 69.8 526
08:10:51 18 1001 184 1 NW 0 70.6 524
08:13:49 18 1000 183 0 SO 0 71.6 527
08:16:49 17 1000 184 4 NW 0 72.9 521
08:19:49 16 1000 183 4 N 0 77.5 525
08:22:49 15 1000 184 2 W 0 78.7 521
08:25:48 15 1000 184 4 W 0 80.1 515
08:28:49 14 1000 185 1 NW 0 81.9 509
08:31:49 14 999 185 1 NW 0 82.6 503
08:34:48 15 1001 186 0 N 0 84.4 504
08:37:47 14 1000 186 1 S 0 85.2 504
08:40:49 14 1000 187 0 O 0 83.8 503
08:43:48 14 1000 186 0 SO 0 84.2 504
08:46:47 14 1001 186 2 S 0 85.1 497
08:49:50 14 1000 187 3 SW 0 84.8 504
08:52:48 14 1000 187 1 N 0 85.1 497
08:55:49 14 1000 187 2 SW 0 85.8 495
08:58:47 15 1000 190 0 O 0 85.8 491
09:01:48 15 1000 197 3 W 0 85.7 489
09:04:48 15 1000 200 8 SW 0 84.5 485
09:07:49 15 1001 190 0 W 0 83.2 487
09:10:47 15 1000 191 1 S 0 82.8 491
09:13:48 15 1000 198 1 SW 0 83.3 489
09:16:48 15 1001 197 1 W 0 83.8 492
09:19:49 15 1001 200 0 SW 0 84.1 489
09:22:49 15 999 197 2 SO 0 83 479
09:25:47 15 1000 209 1 S 0 82.3 471
09:28:48 15 1000 194 2 S 0 81.5 476
09:31:48 15 1001 191 3 NW 0 82 471
09:34:48 15 1001 206 2 S 0 81.6 468
09:37:48 15 1000 203 4 SW 0 80.3 471
09:40:48 16 1001 198 1 W 0 80.1 472
09:43:49 16 1000 208 4 W 0 80.4 468
09:46:48 16 1000 209 0 SW 0 79.6 462
09:49:47 16 1000 197 3 O 0 78.2 468
09:52:46 16 1001 210 4 S 0 76.9 471
09:55:48 16 1000 222 3 S 0 74.8 471
09:58:50 16 1000 216 3 O 0 74.6 468
10:01:48 17 1001 215 2 NW 0 74.4 471
10:04:48 17 1001 199 3 W 0 75 471
10:07:49 17 1000 198 0 NW 0 75.6 488
10:10:49 17 999 206 1 SW 0 75.5 489
10:13:33 16 1001 218 8 SW 0 67.4 488
10:16:47 17 1001 209 5 S 0 71.9 483
10:19:50 17 1000 196 0 NW 0 71.6 477
10:22:50 17 1000 212 2 NW 0 72.3 474
10:25:49 17 1001 200 0 SO 0 73.9 471
10:28:49 17 1001 208 4 SW 0 74.2 480
10:31:48 17 1001 213 4 S 0 72.9 472
10:34:48 17 1001 197 0 N 0 72.8 468
10:37:48 18 1000 202 2 SW 0 72.1 465
10:40:50 17 1001 214 7 SW 0 67.8 466
10:43:49 17 1001 213 1 N 0 68.1 469
10:46:50 17 1000 208 8 SW 0 68.9 468
10:49:48 17 1000 213 4 SO 0 67.6 471
10:52:46 17 1001 210 2 S 0 68.5 471
10:55:49 18 1001 193 2 NW 0 69.6 471
10:58:46 17 1001 199 7 S 0 68.7 459
11:01:49 17 1000 206 4 S 0 66.1 468
11:04:46 18 1001 214 3 NW 0 67.4 471
11:07:48 18 1001 208 1 S 0 68.4 474
11:10:45 18 1000 206 2 O 0 68.1 471
11:13:46 18 1000 204 5 S 0 66.7 468
11:16:49 18 1001 205 2 SW 0 63.1 462
11:19:48 18 1001 206 3 S 0 62.8 463
11:22:51 18 1000 209 1 S 0 64 465
11:25:47 18 1001 211 3 O 0 64.7 466
11:28:48 19 1000 208 5 S 0 64 459
11:31:47 19 1002 207 2 SW 0 64.3 454
11:34:50 19 1000 207 5 S 0 60.2 453
11:37:49 19 1000 208 3 SW 0 60.6 456
11:40:47 19 999 207 2 W 0 61.8 456
11:43:49 19 1000 205 6 N 0 63.2 457
11:46:48 20 1000 203 0 W 0 63.9 456
11:49:48 20 1000 203 2 N 0 62 460
11:52:46 20 1000 203 1 N 0 60.7 460
11:55:49 21 1000 204 9 NW 0 59.4 456
11:58:47 21 1000 205 5 W 0 58.8 460
12:01:50 21 1000 206 0 W 0 56.4 459
12:04:48 21 1000 207 2 S 0 57.1 456
12:07:49 22 1000 208 2 SO 0 56.6 454
12:10:50 22 1000 209 2 SW 0 56.6 454
12:13:48 23 1000 208 1 SO 0 55.3 459
12:16:46 23 1001 210 4 W 0 54.2 463
12:19:31 21 1001 211 3 S 0 47.2 454
12:22:47 23 1000 211 1 NW 0 49.2 445
12:25:48 23 1000 210 1 SO 0 49.6 445
12:28:48 24 1001 210 4 S 0 49.8 445
12:31:50 24 1001 209 2 S 0 49.9 448
12:34:49 24 1000 208 2 SO 0 49.7 442
12:37:52 24 1000 209 13 SO 0 47.1 444
12:40:47 24 1000 209 8 S 0 47 439
12:43:48 25 1000 209 2 SW 0 48.7 443
12:46:50 25 1000 208 0 SO 0 48.3 445
12:49:49 25 999 208 3 NO 0 45.4 448
12:52:49 25 1000 206 1 S 0 45.7 450
12:55:50 25 1000 207 8 O 0 45.9 448
12:58:47 25 1000 208 0 O 0 45.7 445
13:01:49 25 1000 209 5 NW 0 46.5 442
13:04:48 24 1000 210 4 N 0 45.8 445
13:07:48 24 999 211 3 S 0 48.2 439
13:10:49 25 1000 211 5 O 0 43.8 440
13:13:50 25 1000 211 3 SW 0 41.7 433
13:16:50 24 1000 211 3 NW 0 41.9 440
13:19:48 24 999 211 2 NO 0 42.6 443
13:22:48 24 1000 211 0 S 0 40.6 442
13:25:48 23 1000 212 3 W 0 40 442
13:28:50 23 999 213 3 SO 0 45.3 443
13:31:52 24 999 213 1 NW 0 45.4 437
13:34:49 23 999 213 7 NO 0 44.9 439
13:37:49 23 1000 214 4 SO 0 44.4 440
13:40:47 24 999 214 8 NW 0 41.8 437
13:43:45 24 999 215 1 S 0 44.8 439
13:46:48 25 1000 218 0 NW 0 40.1 439
13:49:47 24 1000 220 9 0 40.1 437
13:52:47 24 999 222 3 S 0 45.3 440
13:55:48 25 999 223 5 S 0 45.1 442
13:58:47 25 999 224 2 NW 0 41.9 441
14:01:51 25 999 226 7 SO 0 41.7 439
14:04:48 25 999 227 4 NW 0 41.1 438
14:07:47 24 999 228 4 W 0 39.6 433
14:10:47 24 998 228 3 W 0 41.7 427
14:13:49 25 999 230 0 SO 0 42.2 430
14:16:48 26 998 235 8 W 0 37.7 439
14:19:51 26 999 237 2 SW 0 35.8 437
14:22:50 26 999 238 6 SO 0 37 433
14:25:49 27 1000 239 3 S 0 37.5 433
14:28:48 26 999 239 4 NO 0 37.3 433
14:31:48 25 999 240 1 SO 0 36.4 431
14:34:50 26 999 240 5 NW 0 38.3 422
14:37:47 26 999 241 3 S 0 38.6 424
14:40:47 27 999 241 2 S 0 37.2 430
14:43:47 27 999 242 1 S 0 36.5 430
14:46:47 27 999 242 1 S 0 36 430
14:49:48 27 999 242 5 SW 0 35 436
14:52:50 27 999 242 3 SO 0 37.2 433
14:55:47 28 999 243 4 NO 0 36.4 436
14:58:48 28 999 243 4 SW 0 35.5 428
15:01:50 27 999 243 3 NW 0 34.7 430
15:04:47 25 999 244 3 S 0 36.7 428
15:07:46 25 998 244 0 O 0 37.5 422
15:10:45 25 998 244 5 S 0 39 419
15:13:49 27 998 244 2 NW 0 38.2 419
15:16:48 27 999 244 2 NO 0 35.6 422
15:19:48 26 999 244 0 SO 0 35.2 419
15:22:48 27 998 245 3 W 0 36.9 425
15:25:49 28 998 245 3 N 0 35.8 424
15:28:46 27 998 243 7 N 0 33.3 427
15:31:49 26 998 246 6 N 0 34.9 424
15:34:48 26 998 245 7 N 0 35.2 422
15:37:48 26 999 245 4 NO 0 36.4 424
15:40:51 26 998 246 2 NO 0 36.6 422
15:43:47 27 998 246 8 W 0 36.8 424
15:46:48 27 999 245 3 SO 0 36.3 422
15:49:46 28 998 242 6 S 0 34.1 410
15:52:48 28 999 245 2 S 0 30.8 410
15:55:49 28 998 245 1 SO 0 30.2 416
15:58:50 28 998 244 3 SW 0 29.5 428
16:01:48 27 999 245 2 SW 0 29.7 418
16:04:47 27 999 244 2 S 0 30.9 422
16:07:49 27 998 244 2 W 0 31.7 413
16:10:46 27 999 244 3 N 0 31.5 413
16:13:47 27 998 243 3 W 0 30.9 404
16:16:48 26 998 242 8 N 0 30.6 407
16:19:33 26 998 243 1 SO 0 40 408
16:22:50 25 998 243 8 NO 0 34.2 413
16:25:49 25 998 243 6 N 0 31.2 407
16:28:45 25 998 242 7 N 0 31.5 404
16:31:50 25 998 242 2 NO 0 33.8 407
16:34:49 24 998 240 4 N 0 34.3 407
16:37:47 25 998 238 0 SO 0 35.2 407
16:40:48 25 998 241 2 SO 0 36 407
16:43:48 25 998 240 2 N 0 35.3 404
16:46:46 25 998 238 0 NO 0 35.3 404
16:49:47 25 998 239 0 W 0 35.3 407
16:52:50 25 998 238 1 NW 0 34.9 410
16:55:50 25 998 237 0 NW 0 35.4 406
16:58:48 25 998 235 0 S 0 36.5 404
17:01:50 25 998 236 2 SO 0 38.1 404
17:04:46 25 998 237 2 W 0 39 407
17:07:48 25 998 235 2 SW 0 36.3 409
17:10:47 25 998 240 2 S 0 34.8 407
17:13:47 25 998 237 1 NW 0 35.2 404
17:16:48 25 998 239 3 S 0 35 404
17:19:51 25 998 237 2 NW 0 34.7 406
17:22:47 24 998 239 2 SW 0 34.2 407
17:25:48 24 998 239 5 NW 0 35.8 407
17:28:48 24 997 237 8 N 0 36.6 410
17:31:46 24 998 236 1 N 0 38.7 409
17:34:49 24 998 237 2 NW 0 40.2 404
17:37:46 24 998 239 0 O 0 40.6 406
17:40:46 24 997 240 5 N 0 35.2 404
17:43:47 24 997 243 1 NW 0 36.8 404
17:46:49 25 998 243 1 SW 0 38.8 404
17:49:48 25 998 242 0 NO 0 38.4 407
17:52:47 25 998 241 2 O 0 37.5 407
17:55:47 25 998 241 2 W 0 37.3 406
17:58:48 25 998 240 3 N 0 36.5 406
18:01:48 24 998 236 7 NW 0 35.1 404
18:04:48 24 998 237 0 NW 0 36.7 406
18:07:49 24 998 236 4 S 0 38.5 403
18:10:49 24 998 233 0 NW 0 38 404
18:13:46 24 998 237 2 N 0 37.5 403
18:16:46 24 998 235 1 N 0 37.5 407
18:19:49 24 998 237 7 N 0 37.4 401
18:22:48 24 998 239 0 N 0 37.8 406
18:25:49 24 998 233 2 N 0 39.4 404
18:28:47 23 997 231 0 W 0 37.9 407
18:31:50 23 998 232 1 NW 0 41.6 407
18:34:50 23 998 234 2 N 0 41.5 407
18:37:50 23 998 241 2 NW 0 41 404
18:40:48 24 998 245 0 N 0 41.4 404
18:43:33 22 997 246 0 SW 0 40 406
18:46:49 27 998 246 0 SO 0 35 407
18:49:32 23 998 247 5 N 0 40 407
18:52:47 25 998 247 2 NW 0 31.9 407
18:55:47 24 998 240 8 NW 0 33.2 406
18:58:49 23 998 234 1 SW 0 36.3 407
19:01:47 23 997 226 5 N 0 37.2 407
19:04:49 22 997 227 4 W 0 37.8 407
19:07:51 22 997 223 3 NW 0 38.7 406
19:10:48 22 997 219 1 W 0 39.5 407
19:13:47 22 997 217 0 NW 0 39.5 407
19:16:48 22 998 216 2 S 0 41.5 405
19:19:46 22 997 215 0 N 0 41.5 407
19:22:48 21 997 215 2 NW 0 41 407
19:25:48 21 997 227 3 NW 0 40.2 404
19:28:48 21 998 233 3 NW 0 41.3 406
19:31:50 21 998 221 2 SO 0 40.8 407
19:34:48 21 997 209 0 SO 0 41.6 407
19:37:46 21 997 211 0 SO 0 42.7 410
19:40:49 21 997 207 1 SO 0 43.1 404
19:43:49 21 997 203 0 S 0 43.5 404
19:46:47 21 997 200 0 O 0 44.1 407
19:49:46 21 997 197 0 N 0 44.5 406
19:52:49 20 997 196 0 NW 0 44.2 404
19:55:49 20 997 196 4 NW 0 43.9 407
19:58:48 20 997 195 1 NW 0 43.5 404
20:01:48 20 997 195 1 N 0 43.6 405
20:04:47 20 997 194 0 N 0 44.1 404
20:07:48 20 997 194 1 N 0 44.7 404
20:10:49 20 997 194 2 NW 0 44.3 407
20:13:49 20 997 195 3 NO 0 44.5 404
20:16:47 20 997 195 0 O 0 44.9 406
20:19:49 20 997 196 1 NW 0 44.9 404
20:22:46 20 997 197 0 N 0 44.6 403
20:25:49 20 997 197 0 NW 0 45.2 406
20:28:47 20 997 199 0 N 0 45.9 404
20:31:46 19 997 200 0 N 0 46.6 407
20:34:48 19 997 199 0 SO 0 46.9 407
20:37:51 19 996 196 0 SO 0 47.6 404
20:40:49 19 997 193 0 SO 0 47.9 407
20:43:48 19 997 191 0 SO 0 48.3 404
20:46:49 19 997 189 0 SO 0 48.5 407
20:49:48 19 997 185 0 SO 0 48.7 404
20:52:50 19 996 180 0 SO 0 48.8 407
20:55:48 19 997 175 0 SO 0 49.3 403
20:58:50 19 997 170 0 SO 0 49.8 405
21:01:50 18 998 163 0 SO 0 50.4 404
21:04:49 18 998 153 0 SO 0 51.3 407
21:07:47 18 997 148 0 SO 0 51.6 407
21:10:49 18 997 143 0 SO 0 51.8 404
21:13:48 18 997 140 0 SO 0 52 406
21:16:47 18 997 136 0 SO 0 53.3 407
21:19:49 18 998 132 0 SO 0 55.1 404
21:22:47 18 997 127 0 SO 0 56.5 407
21:25:46 18 997 121 0 SO 0 57.3 403
21:28:47 18 997 111 0 SO 0 57.2 406
21:31:49 18 998 101 0 SO 0 57.7 404
21:34:48 17 997 92 0 SO 0 58.3 410
21:37:46 17 997 83 0 O 0 58.5 413
21:40:47 17 997 74 0 O 0 59 415
21:43:45 17 997 66 0 O 0 59.4 412
21:46:47 17 997 57 0 O 0 60.2 415
21:49:50 16 998 49 0 O 0 60.3 407
21:52:48 16 997 40 0 O 0 60.3 410
21:55:47 16 998 33 0 O 0 60.4 410
21:58:47 16 998 26 0 O 0 60.7 419
22:01:48 16 997 16 0 O 0 60.9 418
22:04:46 16 997 13 0 O 0 62.5 420
22:07:48 16 997 11 0 O 0 67.2 422
22:10:47 16 998 9 0 O 0 68.6 430
22:13:49 16 997 7 0 O 0 69 433
22:16:46 15 997 5 0 O 0 68.8 431
22:19:46 15 997 3 0 O 0 69.2 430
22:22:47 15 998 3 0 O 0 68.9 430
22:25:48 15 998 0 0 O 0 69.2 439
22:28:45 15 998 0 0 O 0 69.9 444
22:31:45 14 998 0 0 O 0 70.3 454
22:34:46 14 998 0 0 O 0 70.5 472
22:37:46 14 997 0 0 O 0 71.1 483
22:40:46 14 998 0 0 O 0 72.4 492
22:43:46 14 998 0 0 O 0 73.4 503
22:46:46 14 997 0 0 O 0 73.5 512
22:49:47 14 998 0 0 O 0 73.4 527
22:52:49 14 998 0 0 O 0 73.3 533
22:55:49 14 998 0 0 O 0 74 538
22:58:44 14 998 0 0 O 0 75.6 541
23:01:45 14 998 0 0 O 0 78.1 541
23:04:47 14 997 0 0 O 0 77.5 553
23:07:46 13 997 0 0 O 0 79.1 561
23:10:46 13 998 0 0 O 0 79.4 568
23:13:47 13 998 0 0 O 0 81.5 573
23:16:46 13 998 0 0 O 0 81.6 577
23:19:46 13 998 0 0 O 0 82.3 585
23:22:47 13 998 0 0 O 0 83.4 591
23:25:48 13 998 0 0 N 0 84 592
23:28:48 13 998 0 0 N 0 83.9 598
23:31:45 13 998 0 0 N 0 83.7 597
23:34:46 13 997 0 0 N 0 83.1 601
23:37:47 13 997 0 0 N 0 82.9 562
23:40:48 12 998 0 0 N 0 84.4 576
23:43:47 12 997 0 0 N 0 84.6 616
23:46:47 12 998 0 0 N 0 84.5 627
23:49:47 12 997 0 0 N 0 84.4 614
23:52:47 12 998 0 0 N 0 84.4 603
23:55:47 12 997 0 0 N 0 83.9 601
23:58:44 12 997 0 0 N 0 83.9 602

Letzte Änderung : 04-Jan-2022
Copyright Jens Köhler, Wolfsburg, Obere Dorfstraße 10d